Location: ??????????
(54.8537°N, 38.8755°E)
Time: 22:31:07
(UTC+00:00)

Tiros 1 despin weight - Pass Details

Date: 18 September 2024
Orbit: 572 x 614 km, 48.2° (Epoch: 12 October)

Event Time Altitude Azimuth Distance (km) Brightness Sun altitude
Rises 00:59:36 0° 237° (WSW) 2,866 - -17.7°
Reaches altitude 10° 01:02:05 10° 226° (SW) 1,968 - -17.3°
Exits shadow 01:04:33 25° 199° (SSW) 1,261 ? -17.0°
Maximum altitude 01:06:02 30° 166° (SSE) 1,103 ? -16.8°
Drops below altitude 10° 01:10:01 10° 105° (ESE) 1,980 ? -16.3°
Sets 01:12:32 0° 94° (E) 2,887 ? -16.0°
